GOES 9 1 23581U 95025A 09182.99483435 -.00000265 00000-0 10000-3 0 1298 2 23581 005.3477 070.4277 0004996 322.2087 037.5665 00.98803258 51579 GOES 11 1 26352U 00022A 09184.59505234 .00000093 00000-0 10000-3 0 3852 2 26352 000.4407 262.8093 0002004 270.8476 186.7644 01.00268125 33574 NADEZHDA 6 1 26384U 00033A 09183.51715296 +.00000038 +00000-0 +16806-4 0 06461 2 26384 098.3927 214.4328 0016130 164.4811 195.6910 14.64116350481198 NOAA 16 1 26536U 00055A 09183.66341395 -.00000255 +00000-0 -11279-3 0 04677 2 26536 099.1759 187.7036 0009698 233.9345 126.0918 14.12522361452484 GOES 12 1 26871U 01031A 09184.36829697 -.00000249 00000-0 10000-3 0 1229 2 26871 000.0685 098.5079 0004681 348.9556 251.9532 01.00271523 29168 NOAA 17 1 27453U 02032A 09183.80933826 -.00000036 +00000-0 +25903-5 0 04717 2 27453 098.4827 242.3409 0012830 080.1382 280.1215 14.24073471364972 INSAT 3A 1 27714U 03013A 09183.80243677 -.00000256 00000-0 10000-3 0 6733 2 27714 000.0550 262.5954 0005501 188.6078 212.1181 01.00270956 22858 NOAA 18 1 28654U 05018A 09183.78638805 -.00000115 +00000-0 -39159-4 0 09603 2 28654 098.9061 126.9047 0013679 323.0171 037.0062 14.11266782212159 MSG 2 1 28912U 05049B 09183.92253747 .00000000 00000-0 10000-3 0 5316 2 28912 000.4133 265.7607 0000490 116.7967 230.7394 01.00275122 13000 METOP-A 1 29499U 06044A 09183.80699440 -.00000451 00000-0 -18633-3 0 8465 2 29499 098.6855 243.7202 0001065 091.5802 268.5465 14.21494463140237